This demonstration page uses our WeatherBlox Daily Observations layout. Learn more.

Left ArrowRight Arrow

44.8408, -93.29828

Hourly Observations for November 6, 2020

Temp ( °F °C ) Dew Point ( °F °C ) Humidity (%) Winds ( mph kmh ) Pressure ( in mb ) Visibility ( mi km ) Precip ( " mm )
12:53 am 00:53 Mostly Cloudy 57 13.9 39 3.9 51 51 SSW 3 6 29.99 1016 10 16 0.00 0.00
1:53 am 01:53 Partly Cloudy 54 12.2 39 3.9 57 57 S 5 7 30.00 1016 10 16 0.00 0.00
2:53 am 02:53 Mostly Clear 56 13.3 39 3.9 53 53 SSW 7 11 29.98 1015 10 16 0.00 0.00
3:53 am 03:53 Clear 53 11.7 39 3.9 59 59 S 3 6 29.98 1015 10 16 0.00 0.00
4:53 am 04:53 Clear 56 13.3 40 4.4 55 55 S 6 9 29.97 1015 10 16 0.00 0.00
5:53 am 05:53 Partly Cloudy 57 13.9 39 3.9 51 51 SSW 6 9 29.96 1015 10 16 0.00 0.00
6:53 am 06:53 Mostly Cloudy 57 13.9 39 3.9 51 51 SSW 8 13 29.96 1015 10 16 0.00 0.00
7:53 am 07:53 Mostly Cloudy 51 10.6 39 3.9 64 64 SE 6 9 29.98 1015 10 16 0.00 0.00
8:53 am 08:53 Mostly Cloudy 59 15 41 5 51 51 S 9 15 29.97 1015 10 16 0.00 0.00
9:53 am 09:53 Mostly Cloudy 64 17.8 41 5 43 43 SSW 13 20 29.96 1014 10 16 0.00 0.00
10:53 am 10:53 Mostly Cloudy 68 20 41 5 38 38 SSW 12 19 29.93 1014 10 16 0.00 0.00
11:53 am 11:53 Mostly Cloudy 72 22.2 41 5 33 33 SSW 15 24 29.91 1013 10 16 0.00 0.00
12:53 pm 12:53 Mostly Cloudy 74 23.3 41 5 31 31 SSW 13 20 29.88 1012 10 16 0.00 0.00
1:53 pm 13:53 Mostly Cloudy 75 23.9 41 5 29 29 S 10 17 29.86 1011 10 16 0.00 0.00
2:53 pm 14:53 Mostly Cloudy 75 23.9 42 5.6 31 31 S 13 20 29.85 1011 10 16 0.00 0.00
3:53 pm 15:53 Mostly Cloudy 73 22.8 42 5.6 33 33 S 9 15 29.86 1011 10 16 0.00 0.00
4:53 pm 16:53 Mostly Cloudy 70 21.1 43 6.1 38 38 S 13 20 29.86 1011 10 16 0.00 0.00
5:53 pm 17:53 Mostly Cloudy 68 20 44 6.7 42 42 SSE 10 17 29.85 1011 10 16 0.00 0.00
6:53 pm 18:53 Mostly Cloudy 65 18.3 46 7.8 51 51 SSE 12 19 29.84 1011 10 16 0.00 0.00
7:53 pm 19:53 Mostly Clear 64 17.8 47 8.3 54 54 S 10 17 29.85 1011 10 16 0.00 0.00
8:53 pm 20:53 Mostly Clear 62 16.7 48 8.9 60 60 SSE 10 17 29.85 1011 10 16 0.00 0.00
9:53 pm 21:53 Mostly Clear 61 16.1 49 9.4 65 65 S 9 15 29.84 1011 10 16 0.00 0.00
10:53 pm 22:53 Mostly Clear 65 18.3 52 11.1 63 63 SSW 15 24 29.84 1011 10 16 0.00 0.00
11:53 pm 23:53 Mostly Clear 63 17.2 52 11.1 68 68 SSW 14 22 29.85 1011 10 16 0.00 0.00

Powered by AerisWeather